Location: Granada Hills
(34.2650°N, 118.5220°W)
Time: 23:33:18
(UTC-07:00)

deb Kosmos-1763 - Visible Passes

Search period start: 23 April 2018 00:00
Search period end: 03 May 2018 00:00
Orbit: 486 x 501 km, 74.0° (Epoch: 23 April)

Date Brightness Start Highest point End Pass type
(mag) Time Alt. Az. Time Alt. Az. Time Alt. Az.
23 Apr 6.3 03:35:41 25° NNE 03:35:41 25° NNE 03:37:24 10° NNE visible
24 Apr 6.9 03:13:59 17° NE 03:13:59 17° NE 03:15:02 10° NNE visible
25 Apr 7.4 02:52:14 12° NE 02:52:14 12° NE 02:52:35 10° NE visible
25 Apr 6.6 04:26:47 11° NW 04:26:47 11° NW 04:27:11 10° NW visible
26 Apr 6.7 04:04:59 12° NNW 04:04:59 12° NNW 04:05:33 10° NNW visible
27 Apr 6.8 03:43:08 13° NNW 03:43:08 13° NNW 03:43:39 10° NNW visible
28 Apr 7.0 03:21:14 12° N 03:21:14 12° N 03:21:36 10° N visible
29 Apr 7.3 02:59:18 11° N 02:59:18 11° N 02:59:28 10° N visible
